Regional Weather Roundup
Issued by NWS

Home | Current Version | Previous Version | Text Only | Print | Product List | Glossary On
Versions: 1 2 3 4 5 6 7 8 9 10 11 12 13 14 15 16 17 18 19 20 21 22 23 24 25 26 27 28 29 30 31 32 33 34 35 36 37 38 39 40 41 42 43 44 45 46 47 48 49 50
000
ASUS45 KTFX 010419
RWRMT
MONTANA HOURLY WEATHER ROUNDUP
NATIONAL WEATHER SERVICE GREAT FALLS MT
919 PM MST SAT JAN 31 2015

NOTE: "FAIR" INDICATES FEW OR NO CLOUDS BELOW 12000 FEET WITH NO
SIGNIFICANT WEATHER AND/OR OBSTRUCTIONS TO VISIBILITY.

* THESE STATIONS ARE NOT UNDER NWS QUALITY CONTROL. THEY DO NOT
   REPORT WEATHER SUCH AS PRECIPITATION OR FOG.

MTZ001>007-043-010500-
WEST OF THE DIVIDE
CITY           SKY/WX    TMP DP  RH WIND       PRES   REMARKS
KALISPELL      CLOUDY    27  16  63 N8        30.23S WCI  19
MISSOULA       MOCLDY    32  25  75 NW8       30.20R WCI  25
BUTTE          MOCLDY    21  16  81 SE5       30.12S WCI  14
MULLAN PASS    FOG       23  19  85 CALM      30.12R VSB 3/4
* ANACONDA     PTCLDY    18  12  77 N/A        N/A
* ESSEX        N/A       17   7  65 SE9        N/A   WCI   6
* EUREKA APT   PTCLDY    30  25  82 CALM      30.27R
* HAMILTON APT MOCLDY    32  23  69 NW5       30.17R WCI  27
* LIBBY APT    MOCLDY    30  27  89 CALM      30.26R
* LINCOLN      N/A       13   4  67 NE5G12     N/A   WCI   5
* LOOKOUT PASS N/A       24  24 100 N4         N/A
* POLSON       N/A       25  24  96 N/A        N/A
* RONAN APT    MOCLDY    28  28 100 N/A        N/A
* SEELEY LAKE  N/A       24  14  66 SW2        N/A
* THOMP F APT  MOCLDY    17  15  92 N2         N/A
$$

MTZ008-052>055-010500-
SOUTHWEST MONTANA
CITY           SKY/WX    TMP DP  RH WIND       PRES   REMARKS
BOZEMAN        CLOUDY    19  12  74 SW3       30.21R
DILLON         CLEAR     19  12  74 NE12      30.11S WCI   6
* W YELLOWSTON PTCLDY    16  14  92 SW2G8      N/A
* THREE FORKS  PTCLDY    18  18 100 N/A        N/A
* BOULDER HILL N/A       10   6  84 N9         N/A   WCI  -3
* MONIDA PASS  N/A       17   6  62 W9         N/A   WCI   6
* RAYNOLDS PAS N/A       16  16 100 N8         N/A   WCI   5
* WHITEHALL    N/A       19   9  65 NE5G10     N/A   WCI  12
* WISE RIVER   N/A       24  15  68 SE7        N/A   WCI  16
$$

MTZ009>010-012-014-046-048-049-054-010500-
EAST SLOPES AND CENTRAL MONTANA
CITY           SKY/WX    TMP DP  RH WIND       PRES   REMARKS
CUT BANK       MOCLDY     0  -2  91 N6        30.31F WCI -12
GREAT FALLS    CLOUDY     9   5  84 CALM      30.33S
HELENA         CLOUDY    18   9  68 N9        30.28R WCI   7
MALMSTROM AFB  LGT SNOW   9   5  84 N3        30.36S
* CONRAD       PTCLDY     7   1  76 CALM       N/A
* DEARBORN     N/A       12   7  80 VRB3G8     N/A
* EAST GLACIER N/A        4   1  87 N/A        N/A
* MONARCH      N/A        5   0  80 NW2        N/A
* PENDROY      N/A        3   1  91 NE4        N/A
* ROGERS PASS  N/A        7   3  83 SW3        N/A
* SWEET GRASS  N/A        1  -3  83 NW4        N/A
* WHITE SULPH  N/A       10   2  70 NW10G16    N/A   WCI  -4
$$

MTZ011-013-016-021-035-040-045-047-050-051-010500-
NORTH CENTRAL MONTANA
CITY           SKY/WX    TMP DP  RH WIND       PRES   REMARKS
HAVRE          LGT SNOW   7   1  76 NE7       30.42S WCI  -5
LEWISTOWN      LGT SNOW   9   3  76 W8        30.27R WCI  -3
* N BAR RANCH  CLOUDY     9   1  70 NW9       30.23R WCI  -4
* CHINOOK      CLOUDY     7   3  83 E3        30.45S VSB 1 3/4
* CHESTER      N/A        5  -1  76 E1         N/A
* DENTON       N/A        9   6  87 NW11       N/A   WCI  -5
* GEYSER       N/A        7   4  87 W14G20     N/A   WCI -10
* JUDITH GAP   N/A        7   5  91 NW13G18    N/A   WCI  -9
* LOMA         N/A        7   3  83 NW4        N/A
$$

MTZ017>020-022>027-061-062-010500-
NORTHEAST MONTANA
CITY           SKY/WX    TMP DP  RH WIND       PRES   REMARKS
GLASGOW        LGT SNOW   5   0  80 NE7       30.44R VSB 2    WCI  -7
GLENDIVE       PTCLDY     1  -2  87 N9        30.35R WCI -14
JORDAN         CLOUDY     7   1  76 NE7       30.38R WCI  -5
SIDNEY         CLOUDY     1  -4  79 N10       30.46R VSB 1 1/4 WCI -15
WOLF POINT     LGT SNOW   3  -2  79 E13       30.46R VSB 3    WCI -14
* BEAVER HILL  N/A        3  -1  83 N11        N/A   WCI -13
* CIRCLE       N/A        4   1  87 NE12       N/A   WCI -12
* LINDSAY DVD  N/A        1  -3  83 N6         N/A   WCI -11
* NAVAJO       N/A       -3  -6  87 NE11       N/A   WCI -20
* PLENTYWOOD A MOCLDY     0  -8  68 N9        30.43S WCI -15
* POPLAR APT   CLOUDY     1  -9  62 N/A       30.46R
* SACO         N/A        4  -1  79 VRB8       N/A   WCI  -9
* SCOBEY APT   MOCLDY     0 -11  59 N9         N/A   WCI -15
$$

MTZ028>042-056>058-010500-
SOUTHCENTRAL AND SOUTHEAST MONTANA
CITY           SKY/WX    TMP DP  RH WIND       PRES   REMARKS
BAKER          LGT SNOW   5   1  83 NE13      30.26R VSB 1 3/4 WCI -12
BILLINGS       LGT SNOW  16   9  74 NE13      30.27R WCI   2
LIVINGSTON     LGT SNOW  18  12  77 CALM      30.19S
MILES CITY     LGT SNOW   9   3  76 N13       30.32R WCI  -7
* BIG TIMBER A CLOUDY    14   9  80 N5        30.22R WCI   6
* FORSYTH APT  MOCLDY    10   5  80 N9        30.33R WCI  -3
* LAUREL APT   MOCLDY    16   7  67 N6         N/A   WCI   7
* ROUNDUP APT  CLOUDY    10   3  73 N11G16     N/A   WCI  -4
* ALZADA       N/A       16  14  92 NE7        N/A   WCI   6
* HYSHAM       N/A        9   5  84 N5         N/A
* LAME DEER    N/A        7   4  87 N11G17     N/A   WCI  -8
* REED POINT   N/A       18  13  81 E7         N/A   WCI   9
* ROSCOE HILL  N/A       13   9  84 NW3        N/A
$$

REGIONAL REPORTS...DAKOTAS
CITY           SKY/WX    TMP DP  RH WIND       PRES   REMARKS
WILLISTON      CLOUDY    -2  -9  72 NE9       30.46R WCI -18
DICKINSON      LGT SNOW   0  -6  75 NE14      30.29R VSB 1 1/2 WCI -19
BEACH          LGT SNOW   1   0  95 E9        30.32R VSB 2    WCI -14
CROSBY         CLEAR     -4 -13  65 E7        30.48S WCI -18
TIOGA          CLEAR     -8 N/A N/A NE5       30.45R WCI -20
WATFORD CITY   LGT SNOW   0  -8  68 NE12      30.40S VSB 3    WCI -17
BISMARCK       LGT SNOW   0  -8  68 NE16G23   30.40R VSB 1 1/2 WCI -20
GRAND FORKS    PTCLDY    -8 -15  71 N15       30.51S WCI -30
FARGO          CLOUDY     0  -9  65 N23       30.41R WCI -23
BUFFALO SD     PTCLDY     7   3  83 NE20      30.12R WCI -13
RAPID CITY     LGT SNOW  14  12  92 NE17      30.11R VSB 2    WCI  -2
$$

REGIONAL REPORTS...WYOMING/IDAHO/WASHINGTON
CITY           SKY/WX    TMP DP  RH WIND       PRES   REMARKS
GILLETTE       CLOUDY    19  16  88 N21G29    30.08R WCI   3
SHERIDAN       CLOUDY    18  10  71 NW22G32   30.19R WCI   1
CODY           CLOUDY    18  16  92 N16G21    30.12R WCI   3
YELLOWSTONE LA PTCLDY     9   5  84 CALM      30.06R
SALMON         CLOUDY    21  16  81 CALM      30.21R
MULLAN PASS    FOG       23  19  85 CALM      30.12S VSB 3/4
SAND POINT     CLOUDY    32  32 100 CALM      30.29R
SPOKANE        CLOUDY    32  28  85 CALM      30.28R
$$

REGIONAL REPORTS...ALBERTA
CITY           SKY/WX    TMP DP  RH WIND       PRES   REMARKS
CALGARY        N/A        1  -2  87 S7        30.28F WCI -12
LETHBRIDGE     N/A       -8 -11  86 S6        30.38F WCI -21
MEDICINE HAT   CLEAR      1   0  95 E3        30.45F
EDMONTON       LGT SNOW   5  -2  72 S8        30.38F WCI  -8
WATERTON GATE  N/A       -4  -8  83 CALM       N/A
CARDSTON       N/A       -2  -4  91 SW2        N/A
MILK RIVER     N/A       -8 -11  86 NW5        N/A   WCI -20
$$

REGIONAL REPORTS...SASKATCHEWAN
CITY           SKY/WX    TMP DP  RH WIND       PRES   REMARKS
SWIFT CURRENT  CLOUDY    -4  -8  83 VRB2      30.42R
REGINA         PTCLDY    -6 -13  71 NW5       30.51S WCI -18
VAL MARIE      N/A        1  -2  87 NE7        N/A   WCI -12
ASSINIBOIA     N/A       -4  -8  83 N6         N/A   WCI -17

$$



USA.gov is the U.S. government's official web portal to all federal, state and local government web resources and services.